Horses

DateHorsePositionPriceProfit/Loss
1/1/22 I Am Maximus 2 6/4 -3
1/1/22 Honest Vic PU 8/1 -3
1/1/22 L'Homme Presse 1 7/4 5.25
1/1/22 Straightouttacompton 6 15/2 -3
1/1/22 Funambule Sivola 6 7/1 -3
1/1/22 Simply The Betts 2 10/1 2.25
1/1/22 Tommys Oscar 1 11/5 6.6
1/1/22 Dolphin Square 1 33/1 61.88
1/1/22 Gaelik Coast 3 3/1 -3
1/1/22 Mulzim 7 20/1 -3
1/1/22 Habit Rouge 7 16/1 -3
2/1/22 Pheonix Star 2 15/8 -3
2/1/22 Annual Invictus 3 15/8 -3
2/1/22 Seaston Spirit PU 12/1 -3
2/1/22 Christmas In April 8 25/1 -3
2/1/22 Overhaugh Street 7 8/1 -3
2/1/22 Alice Avril 2 9/1 1.88
2/1/22 Ginto 1 15/8 5.63
3/1/22 Lord Sparky  PU 5/1 -3
3/1/22 Byzantium Lad PU 18/1 -3
3/1/22 Jersey Wonder PU 12/1 -3
3/1/22 Kazontherazz 2 7/1 1.13
3/1/22 Noble Peace 3 17/2 1.69
3/1/22 Kakamora 3 7/4 -3
4/1/22 Howzak 9 6/1 -3
4/1/22 Aleatoric 3 40/1 13.5
4/1/22 Thegreyvtrain 2 9/1 1.88
4/1/22 Merry Mistress 3 9/2 0
4/1/22 Global Harmony 11 14/1 -3
4/1/22 Theme Tune 10 13/2 -3
4/1/22 Vertice 6 11/1 -3
4/1/22 Seeking Perfection 5 16/1 -3
5/1/22 Lots Of Luck 4 10/1 2.25
5/1/22 Gustavian 2 1/1 -3
5/1/22 Broken Rifle 2 13/2 0.94
5/1/22 Dark Side Prince 3 5/2 -3
5/1/22 Echo Watt 5 5/1 -3
6/1/22 Dame Du Soir 4 9/2 -3
6/1/22 Pachacuti 8 7/1 -3
6/1/22 Dom Of Mary 2 6/4 -3
6/1/22 Jaunty Viking 3 16/1 4.5
7/1/22 Smith 1 5/2 7.5
7/1/22 Boy George 6 15/2 -3
7/1/22 Notoriously Risky 4 5/1 -3
7/1/22 Surewecan 7 16/1 -3
7/1/22 Hectors Here 3 9/2 0
7/1/22 Blackjack 4 11/1 -3
8/1/22 Anythingforlove 2 16/1 4.5
8/1/22 Chef D'Equipe PU 8/1 -3
8/1/22 Moonlighter 3 7/1 1.13
8/1/22 Volkovka 6 7/1 -3
8/1/22 Out On The Tear 3 15/2 1.31
8/1/22 Manetti U 7/1 -3
8/1/22 Adelphi Spirit 10 22/1 -3
9/1/22 Green Vault 1 11/8 4.13
9/1/22 Crack Du Ninnian 3 5/2 -3
9/1/22 Douglas Talking 4 5/2 -3
9/1/22 Nine Elms 13 11/1 -3
10/1/22 Angels Landing 2 11/2 0.56
10/1/22 Legends Gold 2 5/1 0
10/1/22 Jimmy The Digger 5 9/2 -3
10/1/22 Quickbuck 9 7/1 -3
10/1/22 All Dancer 4 4/1 -3
10/1/22 Leoncavallo 3 9/2 0
11/1/22 Akentrik 4 6/1 -3
11/1/22 The Golden Rebel F 5/1 -3
11/1/22 Russian Ruler 3 11/8 -3
11/1/22 Red Tornado 8 50/1 -3
11/1/22 Kissesforkatie 4 9/2 -3
12/1/22 Magic Dancer 5 9/2 -3
12/1/22 Steel Wave 2 12/1 3
12/1/22 Bezzas Lad 7 14/1 -3
13/1/22 Oriental Lilly 4 9/1 -3
13/1/22 Abnaa 4 7/1 -3
13/1/22 Sid Ismael F 7/2 -3
13/1/22 Hart of Steel 1 9/4 6.75
13/1/22 Coreys Courage 1 9/4 6.75
14/1/22 Betty Baloo 2 11/4 -3
14/1/22 Coup De Gold 4 9/2 0
14/1/22 Cudgel 5 11/2 -3
14/1/22 Alright Marlene 3 11/4 -3
14/1/22 Our Power 1 11/4 8.25
14/1/22 Collingham 2 7/1 1.13
14/1/22 Nuble 1 13/8 4.88
14/1/22 Jastar 6 11/2 -3
15/1/22 Milan Bridge 4 5/2 -3
15/1/22 Fanzio 5 6/1 -3
15/1/22 Highway One o Two 2 25/1 7.88
15/1/22 Earth Lord 7 14/1 -3
15/1/22 Mac Tottie 6 10/1 -3
15/1/22 Escapeandevade 2 7/2 -3
15/1/22 Haafapeice 1 6/1 11.25
15/1/22 Surrey Quest PU 11/4 -3
15/1/22 Notachance 8 12/1 -3
16/1/22 Our Metha Bridge 6 8/1 -3
16/1/22 Ruby Ruby 9 5/1 -3
16/1/22 Light Lilly 1 7/1 13.13
16/1/22 Airshow 1 7/1 13.13
17/1/22 Everythings'ontick 1 7/2 10.5
17/1/22 Eden Du Houx 2 7/2 -3
17/1/22 Beau Haze 5 11/2 -3
17/1/22 Midnight Mary 1 3/1 9
17/1/22 Broomfield Hall 2 9/2 0
17/1/22 Good World 9 16/1 -3
18/1/22 Da Vinci Hand 5 15/2 -3
18/1/22 Taxmeifyoucan 6 25/1 -3
18/1/22 Templier 8 9/1 -3
18/1/22 Tudors Treasure 5 11/2 -3
19/1/22 Hecouldbetheone 2 15/8 -3
19/1/22 Nobby 7 18/1 -3
19/1/22 Jeradme 4 6/1 -3
19/1/22 Treble L 9/1 -3
20/1/22 Steel Wave  1 12/1 22.5
20/1/22 Jepeck 3 12/1 3
20/1/22 Native Robin 1 9/1 16.88
20/1/22 Bobhopeornohope 3 5/2 -3
Seq.NamePositionOfficeStart date